Location: Asheville, NC
(35.6000°N, 82.5500°W)
Time: 16:32:12
(UTC-05:00)

Vanguard 1 Rocket - Pass Details

Date: 15 December 2017
Orbit: 656 x 4222 km, 34.3° (Epoch: 17 January)

Event Time Altitude Azimuth Distance (km) Brightness Sun altitude
Rises 15:03:19 0° 208° (SSW) 3,466 11.9 20.3°
Reaches altitude 10° 15:05:44 10° 196° (SSW) 2,782 11.3 20.0°
Maximum altitude 15:11:30 29° 137° (SE) 2,318 9.7 19.2°
Drops below altitude 10° 15:20:57 10° 83° (E) 4,694 10.7 18.0°
Sets 15:26:30 0° 75° (ENE) 6,362 11.2 17.2°
